| time (UTC) | temp F | wind direction | speed knots | gust knots | rain 1hr in | rain 24hr in | rain mn in | humidity % | barometer mb |
| 20260902221605 | 57 | 193 | 0.0 | 3.5 | 0.01 | 0.15 | 0.01 | 95 | 1005.3 |
| 20260902220037 | 56 | 135 | 0.0 | 2.6 | 0.01 | 0.15 | 0.01 | 95 | 1005.2 |
| 20260902214605 | 56 | 155 | 0.0 | 3.5 | 0.00 | 0.14 | 0.00 | 95 | 1005.1 |
| 20260902213022 | 56 | 162 | 0.0 | 5.2 | 0.00 | 0.14 | 0.00 | 95 | 1005.1 |
| 20260902211527 | 56 | 168 | 0.0 | 2.6 | 0.00 | 0.14 | 0.14 | 95 | 1005.1 |
| 20260902210021 | 56 | 163 | 0.0 | 1.7 | 0.01 | 0.14 | 0.14 | 95 | 1005.0 |
| 20260902204520 | 56 | 310 | 0.0 | 2.6 | 0.01 | 0.14 | 0.14 | 95 | 1005.0 |
| 20260902203020 | 56 | 202 | 0.0 | 3.5 | 0.03 | 0.14 | 0.14 | 95 | 1004.9 |
| 20260902201531 | 56 | 207 | 0.9 | 6.1 | 0.04 | 0.14 | 0.14 | 95 | 1004.8 |
| 20260902200018 | 56 | 234 | 0.0 | 5.2 | 0.06 | 0.13 | 0.13 | 95 | 1004.8 |
| 20260902194532 | 56 | 199 | 0.0 | 5.2 | 0.07 | 0.13 | 0.13 | 95 | 1004.6 |
| 20260902193002 | 56 | 143 | 0.0 | 1.7 | 0.06 | 0.11 | 0.11 | 95 | 1005.0 |
| 20260902191600 | 56 | 175 | 0.0 | 0.9 | 0.06 | 0.10 | 0.10 | 94 | 1005.2 |
| 20260902190059 | 56 | 176 | 0.0 | 1.7 | 0.03 | 0.07 | 0.07 | 94 | 1005.6 |
| 20260902184558 | 56 | 172 | 0.0 | 0.9 | 0.03 | 0.06 | 0.06 | 94 | 1005.4 |
| 20260902183058 | 56 | 174 | 0.0 | 0.9 | 0.04 | 0.05 | 0.05 | 93 | 1005.4 |
| 20260902181601 | 56 | 165 | 0.0 | 1.7 | 0.04 | 0.04 | 0.04 | 93 | 1005.6 |
| 20260902180057 | 56 | 165 | 0.0 | 1.7 | 0.04 | 0.04 | 0.04 | 93 | 1005.9 |
| 20260902174556 | 56 | 127 | 0.0 | 2.6 | 0.03 | 0.03 | 0.03 | 91 | 1006.0 |
| 20260902173040 | 57 | 138 | 0.0 | 1.7 | 0.01 | 0.01 | 0.01 | 90 | 1006.0 |
| 20260902171542 | 57 | 164 | 0.0 | 0.9 | 0.00 | 0.00 | 0.00 | 88 | 1005.9 |
| 20260902170039 | 58 | 153 | 0.0 | 0.0 | 0.00 | 0.00 | 0.00 | 86 | 1005.8 |
| 20260902164544 | 59 | 160 | 0.0 | 1.7 | 0.00 | 0.00 | 0.00 | 82 | 1005.7 |
| 20260902163038 | 59 | 141 | 0.0 | 1.7 | 0.00 | 0.00 | 0.00 | 79 | 1005.6 |
| 20260902161538 | 60 | 158 | 0.0 | 0.9 | 0.00 | 0.00 | 0.00 | 79 | 1005.6 |
| 20260902160035 | 59 | 167 | 0.0 | 0.0 | 0.00 | 0.00 | 0.00 | 82 | 1005.7 |
| 20260902154534 | 59 | 163 | 0.0 | 0.0 | 0.00 | 0.00 | 0.00 | 83 | 1005.8 |
| 20260902153027 | 59 | 163 | 0.0 | 1.7 | 0.00 | 0.00 | 0.00 | 82 | 1005.9 |
| 20260902151519 | 59 | 186 | 0.0 | 0.9 | 0.00 | 0.00 | 0.00 | 79 | 1006.2 |
| 20260902150020 | 0 | 0.0 | 0.0 | 0.00 | 0.00 | 0.00 | 1006.2 | ||
| 20260902144512 | 0 | 0.0 | 0.0 | 0.00 | 0.00 | 0.00 | 1006.3 | ||
| 20260902143008 | 0 | 0.0 | 0.0 | 0.00 | 0.00 | 0.00 | 1006.4 | ||
| 20260902141504 | 0 | 0.0 | 0.0 | 0.00 | 0.00 | 0.00 | 1006.6 | ||
| 20260902140107 | 0 | 0.0 | 0.0 | 0.00 | 0.00 | 0.00 | 1006.7 | ||
| 20260902134558 | 0 | 0.0 | 0.0 | 0.00 | 0.00 | 0.00 | 1006.9 | ||
| 20260902133101 | 0 | 0.0 | 0.0 | 0.00 | 0.00 | 0.00 | 1007.1 | ||
| 20260902131529 | 0 | 0.0 | 0.0 | 0.00 | 0.00 | 0.00 | 1007.2 | ||
| 20260902130028 | 0 | 0.0 | 0.0 | 0.00 | 0.00 | 0.00 | 1007.6 | ||
| 20260902124508 | 0 | 0.0 | 0.0 | 0.00 | 0.00 | 0.00 | 1007.8 | ||
| 20260902123007 | 0 | 0.0 | 0.0 | 0.00 | 0.00 | 0.00 | 1007.9 | ||
| 20260902121609 | 0 | 0.0 | 0.0 | 0.00 | 0.00 | 0.00 | 1008.1 | ||
| 20260902120056 | 0 | 0.0 | 0.0 | 0.00 | 0.00 | 0.00 | 1008.3 | ||
| 20260902114553 | 0 | 0.0 | 0.0 | 0.00 | 0.00 | 0.00 | 1008.5 | ||
| 20260902113054 | 0 | 0.0 | 0.0 | 0.00 | 0.00 | 0.00 | 1008.7 | ||
| 20260902111544 | 57 | 176 | 0.0 | 0.0 | 0.00 | 0.00 | 0.00 | 84 | 1008.8 |
| 20260902110042 | 57 | 171 | 0.0 | 0.0 | 0.00 | 0.00 | 0.00 | 84 | 1008.9 |
| 20260902104535 | 57 | 186 | 0.0 | 0.9 | 0.00 | 0.00 | 0.00 | 84 | 1008.9 |
| 20260902103027 | 57 | 161 | 0.0 | 0.9 | 0.00 | 0.00 | 0.00 | 85 | 1009.1 |
| 20260902101535 | 57 | 288 | 0.0 | 0.9 | 0.00 | 0.00 | 0.00 | 85 | 1009.1 |
| 20260902100025 | 57 | 174 | 0.0 | 0.9 | 0.00 | 0.00 | 0.00 | 87 | 1009.1 |
| 20260902094523 | 57 | 162 | 0.0 | 0.0 | 0.00 | 0.00 | 0.00 | 87 | 1009.2 |
| 20260902093025 | 57 | 162 | 0.0 | 0.0 | 0.00 | 0.00 | 0.00 | 87 | 1009.3 |
| 20260902091519 | 57 | 162 | 0.0 | 0.0 | 0.00 | 0.00 | 0.00 | 88 | 1009.6 |
| 20260902090019 | 56 | 163 | 0.0 | 0.9 | 0.00 | 0.00 | 0.00 | 89 | 1009.8 |
| 20260902084506 | 56 | 162 | 0.0 | 0.9 | 0.00 | 0.00 | 0.00 | 89 | 1009.9 |
| 20260902083006 | 56 | 157 | 0.0 | 0.9 | 0.00 | 0.00 | 0.00 | 88 | 1009.9 |
| 20260902081503 | 57 | 164 | 0.0 | 0.9 | 0.00 | 0.00 | 0.00 | 88 | 1009.9 |
| 20260902080001 | 58 | 313 | 0.0 | 0.0 | 0.00 | 0.00 | 0.00 | 86 | 1009.9 |
| 20260902074614 | 58 | 314 | 0.0 | 2.6 | 0.00 | 0.00 | 0.00 | 85 | 1009.9 |
| 20260902073058 | 58 | 171 | 0.0 | 0.0 | 0.00 | 0.00 | 0.00 | 84 | 1010.1 |
| 20260902071556 | 59 | 154 | 0.0 | 0.0 | 0.00 | 0.00 | 0.00 | 83 | 1010.2 |
| 20260902070055 | 59 | 165 | 0.0 | 0.0 | 0.00 | 0.00 | 0.00 | 83 | 1010.4 |
| 20260902064546 | 59 | 160 | 0.0 | 0.9 | 0.00 | 0.00 | 0.00 | 82 | 1010.5 |
| 20260902063044 | 58 | 170 | 0.0 | 1.7 | 0.00 | 0.00 | 0.00 | 83 | 1010.5 |
| 20260902061547 | 58 | 174 | 0.0 | 0.0 | 0.00 | 0.00 | 0.00 | 83 | 1010.4 |
| 20260902060040 | 59 | 174 | 0.0 | 0.0 | 0.00 | 0.00 | 0.00 | 82 | 1010.4 |
| 20260902054541 | 59 | 136 | 0.0 | 0.0 | 0.00 | 0.00 | 0.00 | 83 | 1010.6 |
| 20260902053038 | 59 | 136 | 0.0 | 0.0 | 0.00 | 0.00 | 0.00 | 82 | 1010.7 |
| 20260902051536 | 59 | 136 | 0.0 | 0.0 | 0.00 | 0.00 | 0.00 | 82 | 1010.6 |
| 20260902050036 | 60 | 150 | 0.0 | 0.9 | 0.00 | 0.00 | 0.00 | 81 | 1010.7 |
| 20260902044528 | 60 | 159 | 0.0 | 0.0 | 0.00 | 0.00 | 0.00 | 81 | 1010.9 |
| 20260902043032 | 60 | 158 | 0.0 | 0.0 | 0.00 | 0.00 | 0.00 | 80 | 1010.8 |
| 20260902041521 | 60 | 158 | 0.0 | 0.0 | 0.00 | 0.00 | 0.00 | 79 | 1010.8 |
| 20260902040019 | 60 | 158 | 0.0 | 0.0 | 0.00 | 0.00 | 0.00 | 78 | 1010.8 |
| 20260902034516 | 61 | 158 | 0.0 | 0.0 | 0.00 | 0.00 | 0.00 | 77 | 1010.6 |
| 20260902033015 | 61 | 158 | 0.0 | 0.0 | 0.00 | 0.00 | 0.00 | 76 | 1010.6 |
| 20260902031522 | 61 | 158 | 0.0 | 0.9 | 0.00 | 0.00 | 0.00 | 75 | 1010.5 |
| 20260902030011 | 62 | 143 | 0.0 | 0.9 | 0.00 | 0.00 | 0.00 | 74 | 1010.4 |
| 20260902024558 | 62 | 160 | 0.0 | 0.0 | 0.00 | 0.00 | 0.00 | 74 | 1010.4 |
| 20260902023108 | 62 | 172 | 0.0 | 0.0 | 0.00 | 0.00 | 0.00 | 74 | 1010.4 |
| 20260902021555 | 63 | 149 | 0.0 | 0.0 | 0.00 | 0.00 | 0.00 | 73 | 1010.3 |
| 20260902020053 | 63 | 126 | 0.0 | 0.0 | 0.00 | 0.00 | 0.00 | 74 | 1010.2 |
| 20260902014551 | 63 | 126 | 0.0 | 0.9 | 0.00 | 0.00 | 0.00 | 76 | 1010.2 |
| 20260902013050 | 63 | 126 | 0.0 | 0.9 | 0.00 | 0.00 | 0.00 | 74 | 1010.1 |
| 20260902011610 | 64 | 157 | 0.0 | 0.0 | 0.00 | 0.00 | 0.00 | 72 | 1010.0 |
| 20260902010048 | 64 | 162 | 0.0 | 0.9 | 0.00 | 0.00 | 0.00 | 72 | 1010.1 |
| 20260902004538 | 65 | 141 | 0.0 | 0.9 | 0.00 | 0.00 | 0.00 | 71 | 1010.0 |
| 20260902003038 | 65 | 187 | 0.0 | 0.9 | 0.00 | 0.00 | 0.00 | 70 | 1009.9 |
| 20260902001537 | 66 | 128 | 0.0 | 1.7 | 0.00 | 0.00 | 0.00 | 68 | 1009.8 |
| 20260902000040 | 65 | 148 | 0.0 | 1.7 | 0.00 | 0.00 | 0.00 | 69 | 1009.8 |
| 20260901234534 | 65 | 158 | 0.0 | 1.7 | 0.00 | 0.00 | 0.00 | 69 | 1009.9 |
| 20260901233033 | 65 | 169 | 0.0 | 0.9 | 0.00 | 0.00 | 0.00 | 70 | 1010.0 |
| 20260901231539 | 65 | 150 | 0.0 | 2.6 | 0.00 | 0.00 | 0.00 | 71 | 1009.9 |
| 20260901230030 | 65 | 126 | 0.0 | 0.0 | 0.00 | 0.00 | 0.00 | 72 | 1010.1 |
| 20260901224524 | 65 | 165 | 0.0 | 0.9 | 0.00 | 0.00 | 0.00 | 72 | 1010.1 |
| 20260901223016 | 65 | 143 | 0.0 | 1.7 | 0.00 | 0.00 | 0.00 | 71 | 1010.2 |